Multibeam Report for KM1217


Ship Name: Kilo Moana
Chief Scientist: Dyhrman, Sonya
Woods Hole Oceanographic Institution
Source Organization: UNOLS R2R
Start Date: 2012-08-05
End Date: 2012-08-14


View ISO Metadata

Visit the full NCEI Bathymetry Viewer


Multibeam Bathymetry

Cruise Details

Project: C-MORE: Hawaii Ocean Experiment-Dynamics of Light and Nutrients (HOE-DYLAN)
Instrument: Kongsberg EM122

Data Quality

Number of Files: 146
Number of Records: 87753
BATHYMETRY DATA Quantity Percentage
Number of Beams 37909296 100%
Number of Good Beams 34372718 90.67%
Number of Zero Beams 0 0%
Number of Flagged Beams 3536578 9.33%

Navigation Totals

Total Time: 142.2859 hours
Total Track Length: 616.4028 km
Average Speed: 4.332 km/hr (2.3391 knots)

Cruise Bounds

Northern Extent: 22.880697
Southern Extent: 21.246761
Western Extent: -158.33351
Eastern Extent: -157.87836

Limits

Minimum Sonar Depth 6.3049 Maximum Sonar Depth 8.6992
Minimum Altitude 45.4984 Maximum Altitude 4898.5361
Minimum Depth 45.3778 Maximum Depth 5306.7041

File Information

Full Resolution Bathymetry as collected (raw): 145

Files File Size Description
0000_20120805_215518_KM122.all.mb58.gz 71.37MB Kongsberg multibeam vendor format
0000_20120814_122119_KM122.all.mb58.gz 24.88MB Kongsberg multibeam vendor format
0001_20120805_225507_KM122.all.mb58.gz 119.13MB Kongsberg multibeam vendor format
0002_20120805_235511_KM122.all.mb58.gz 53.15MB Kongsberg multibeam vendor format
0003_20120806_005511_KM122.all.mb58.gz 47.30MB Kongsberg multibeam vendor format
0004_20120806_015510_KM122.all.mb58.gz 47.63MB Kongsberg multibeam vendor format
0005_20120806_025511_KM122.all.mb58.gz 47.31MB Kongsberg multibeam vendor format
0006_20120806_035512_KM122.all.mb58.gz 47.42MB Kongsberg multibeam vendor format
0007_20120806_045511_KM122.all.mb58.gz 47.33MB Kongsberg multibeam vendor format
0008_20120806_055518_KM122.all.mb58.gz 46.82MB Kongsberg multibeam vendor format
0009_20120806_065513_KM122.all.mb58.gz 46.78MB Kongsberg multibeam vendor format
0010_20120806_075520_KM122.all.mb58.gz 46.64MB Kongsberg multibeam vendor format
0011_20120806_085509_KM122.all.mb58.gz 47.02MB Kongsberg multibeam vendor format
0012_20120806_095521_KM122.all.mb58.gz 46.78MB Kongsberg multibeam vendor format
0013_20120806_105508_KM122.all.mb58.gz 47.01MB Kongsberg multibeam vendor format
0014_20120806_115518_KM122.all.mb58.gz 46.89MB Kongsberg multibeam vendor format
0015_20120806_125520_KM122.all.mb58.gz 47.00MB Kongsberg multibeam vendor format
0016_20120806_135520_KM122.all.mb58.gz 46.94MB Kongsberg multibeam vendor format
0017_20120806_145512_KM122.all.mb58.gz 47.59MB Kongsberg multibeam vendor format
0018_20120806_155513_KM122.all.mb58.gz 47.19MB Kongsberg multibeam vendor format
0019_20120806_165516_KM122.all.mb58.gz 47.19MB Kongsberg multibeam vendor format
0020_20120806_175521_KM122.all.mb58.gz 47.10MB Kongsberg multibeam vendor format
0021_20120806_185521_KM122.all.mb58.gz 47.15MB Kongsberg multibeam vendor format
0022_20120806_195521_KM122.all.mb58.gz 47.03MB Kongsberg multibeam vendor format
0023_20120806_205519_KM122.all.mb58.gz 47.09MB Kongsberg multibeam vendor format
0024_20120806_215522_KM122.all.mb58.gz 47.02MB Kongsberg multibeam vendor format
0025_20120806_225521_KM122.all.mb58.gz 46.86MB Kongsberg multibeam vendor format
0026_20120806_235512_KM122.all.mb58.gz 47.04MB Kongsberg multibeam vendor format
0027_20120807_005522_KM122.all.mb58.gz 47.48MB Kongsberg multibeam vendor format
0028_20120807_015521_KM122.all.mb58.gz 46.94MB Kongsberg multibeam vendor format
0029_20120807_025522_KM122.all.mb58.gz 46.71MB Kongsberg multibeam vendor format
0030_20120807_035508_KM122.all.mb58.gz 47.13MB Kongsberg multibeam vendor format
0031_20120807_045524_KM122.all.mb58.gz 46.99MB Kongsberg multibeam vendor format
0032_20120807_055523_KM122.all.mb58.gz 47.35MB Kongsberg multibeam vendor format
0033_20120807_065519_KM122.all.mb58.gz 47.67MB Kongsberg multibeam vendor format
0034_20120807_075517_KM122.all.mb58.gz 47.17MB Kongsberg multibeam vendor format
0035_20120807_085523_KM122.all.mb58.gz 47.12MB Kongsberg multibeam vendor format
0036_20120807_095523_KM122.all.mb58.gz 47.13MB Kongsberg multibeam vendor format
0037_20120807_105513_KM122.all.mb58.gz 47.08MB Kongsberg multibeam vendor format
0038_20120807_115510_KM122.all.mb58.gz 47.16MB Kongsberg multibeam vendor format
0039_20120807_125509_KM122.all.mb58.gz 47.24MB Kongsberg multibeam vendor format
0040_20120807_135519_KM122.all.mb58.gz 47.13MB Kongsberg multibeam vendor format
0041_20120807_145522_KM122.all.mb58.gz 47.38MB Kongsberg multibeam vendor format
0042_20120807_155516_KM122.all.mb58.gz 47.06MB Kongsberg multibeam vendor format
0043_20120807_165515_KM122.all.mb58.gz 47.44MB Kongsberg multibeam vendor format
0044_20120807_175519_KM122.all.mb58.gz 47.08MB Kongsberg multibeam vendor format
0045_20120807_185511_KM122.all.mb58.gz 47.85MB Kongsberg multibeam vendor format
0046_20120807_195522_KM122.all.mb58.gz 47.28MB Kongsberg multibeam vendor format
0047_20120807_205518_KM122.all.mb58.gz 47.23MB Kongsberg multibeam vendor format
0048_20120807_215521_KM122.all.mb58.gz 47.14MB Kongsberg multibeam vendor format
0049_20120807_225520_KM122.all.mb58.gz 46.87MB Kongsberg multibeam vendor format
0050_20120807_235511_KM122.all.mb58.gz 47.08MB Kongsberg multibeam vendor format
0051_20120808_005518_KM122.all.mb58.gz 47.05MB Kongsberg multibeam vendor format
0052_20120808_015517_KM122.all.mb58.gz 46.90MB Kongsberg multibeam vendor format
0053_20120808_025510_KM122.all.mb58.gz 47.19MB Kongsberg multibeam vendor format
0054_20120808_035509_KM122.all.mb58.gz 47.71MB Kongsberg multibeam vendor format
0055_20120808_045522_KM122.all.mb58.gz 47.33MB Kongsberg multibeam vendor format
0056_20120808_055525_KM122.all.mb58.gz 35.92MB Kongsberg multibeam vendor format
0057_20120810_213545_KM122.all.mb58.gz 47.25MB Kongsberg multibeam vendor format
0058_20120810_223540_KM122.all.mb58.gz 47.04MB Kongsberg multibeam vendor format
0059_20120810_233550_KM122.all.mb58.gz 46.76MB Kongsberg multibeam vendor format
0060_20120811_003548_KM122.all.mb58.gz 47.13MB Kongsberg multibeam vendor format
0061_20120811_013549_KM122.all.mb58.gz 47.26MB Kongsberg multibeam vendor format
0062_20120811_023537_KM122.all.mb58.gz 46.54MB Kongsberg multibeam vendor format
0063_20120811_033552_KM122.all.mb58.gz 46.63MB Kongsberg multibeam vendor format
0064_20120811_043550_KM122.all.mb58.gz 46.40MB Kongsberg multibeam vendor format
0065_20120811_053534_KM122.all.mb58.gz 46.81MB Kongsberg multibeam vendor format
0066_20120811_063544_KM122.all.mb58.gz 46.55MB Kongsberg multibeam vendor format
0067_20120811_073535_KM122.all.mb58.gz 46.74MB Kongsberg multibeam vendor format
0068_20120811_083539_KM122.all.mb58.gz 46.69MB Kongsberg multibeam vendor format
0069_20120811_093547_KM122.all.mb58.gz 46.83MB Kongsberg multibeam vendor format
0070_20120811_103551_KM122.all.mb58.gz 46.50MB Kongsberg multibeam vendor format
0071_20120811_113538_KM122.all.mb58.gz 46.88MB Kongsberg multibeam vendor format
0072_20120811_123541_KM122.all.mb58.gz 46.73MB Kongsberg multibeam vendor format
0073_20120811_133542_KM122.all.mb58.gz 46.76MB Kongsberg multibeam vendor format
0074_20120811_143534_KM122.all.mb58.gz 47.33MB Kongsberg multibeam vendor format
0075_20120811_153540_KM122.all.mb58.gz 46.83MB Kongsberg multibeam vendor format
0076_20120811_163548_KM122.all.mb58.gz 46.63MB Kongsberg multibeam vendor format
0077_20120811_173545_KM122.all.mb58.gz 46.65MB Kongsberg multibeam vendor format
0078_20120811_183548_KM122.all.mb58.gz 46.51MB Kongsberg multibeam vendor format
0079_20120811_193548_KM122.all.mb58.gz 46.46MB Kongsberg multibeam vendor format
0080_20120811_203544_KM122.all.mb58.gz 46.25MB Kongsberg multibeam vendor format
0081_20120811_213530_KM122.all.mb58.gz 46.76MB Kongsberg multibeam vendor format
0082_20120811_223544_KM122.all.mb58.gz 46.41MB Kongsberg multibeam vendor format
0083_20120811_233535_KM122.all.mb58.gz 46.46MB Kongsberg multibeam vendor format
0084_20120812_003542_KM122.all.mb58.gz 46.72MB Kongsberg multibeam vendor format
0085_20120812_013543_KM122.all.mb58.gz 46.53MB Kongsberg multibeam vendor format
0086_20120812_023544_KM122.all.mb58.gz 46.39MB Kongsberg multibeam vendor format
0087_20120812_033534_KM122.all.mb58.gz 46.62MB Kongsberg multibeam vendor format
0088_20120812_043538_KM122.all.mb58.gz 46.60MB Kongsberg multibeam vendor format
0089_20120812_053548_KM122.all.mb58.gz 46.67MB Kongsberg multibeam vendor format
0090_20120812_063544_KM122.all.mb58.gz 47.13MB Kongsberg multibeam vendor format
0091_20120812_073544_KM122.all.mb58.gz 46.66MB Kongsberg multibeam vendor format
0092_20120812_083546_KM122.all.mb58.gz 46.71MB Kongsberg multibeam vendor format
0093_20120812_093545_KM122.all.mb58.gz 46.45MB Kongsberg multibeam vendor format
0094_20120812_103538_KM122.all.mb58.gz 46.57MB Kongsberg multibeam vendor format
0095_20120812_113540_KM122.all.mb58.gz 46.55MB Kongsberg multibeam vendor format
0096_20120812_123535_KM122.all.mb58.gz 46.64MB Kongsberg multibeam vendor format
0097_20120812_133530_KM122.all.mb58.gz 46.96MB Kongsberg multibeam vendor format
0098_20120812_143547_KM122.all.mb58.gz 46.50MB Kongsberg multibeam vendor format
0099_20120812_153534_KM122.all.mb58.gz 46.66MB Kongsberg multibeam vendor format
0100_20120812_163536_KM122.all.mb58.gz 46.50MB Kongsberg multibeam vendor format
0101_20120812_173530_KM122.all.mb58.gz 46.55MB Kongsberg multibeam vendor format
0102_20120812_183538_KM122.all.mb58.gz 47.20MB Kongsberg multibeam vendor format
0103_20120812_193546_KM122.all.mb58.gz 46.67MB Kongsberg multibeam vendor format
0104_20120812_203546_KM122.all.mb58.gz 46.07MB Kongsberg multibeam vendor format
0105_20120812_213532_KM122.all.mb58.gz 46.33MB Kongsberg multibeam vendor format
0106_20120812_223544_KM122.all.mb58.gz 45.90MB Kongsberg multibeam vendor format
0107_20120812_233531_KM122.all.mb58.gz 46.18MB Kongsberg multibeam vendor format
0108_20120813_003539_KM122.all.mb58.gz 46.08MB Kongsberg multibeam vendor format
0109_20120813_013532_KM122.all.mb58.gz 46.33MB Kongsberg multibeam vendor format
0110_20120813_023539_KM122.all.mb58.gz 46.39MB Kongsberg multibeam vendor format
0111_20120813_033548_KM122.all.mb58.gz 46.80MB Kongsberg multibeam vendor format
0112_20120813_043538_KM122.all.mb58.gz 46.33MB Kongsberg multibeam vendor format
0113_20120813_053542_KM122.all.mb58.gz 46.33MB Kongsberg multibeam vendor format
0114_20120813_063543_KM122.all.mb58.gz 46.29MB Kongsberg multibeam vendor format
0115_20120813_073537_KM122.all.mb58.gz 46.41MB Kongsberg multibeam vendor format
0116_20120813_083543_KM122.all.mb58.gz 46.35MB Kongsberg multibeam vendor format
0117_20120813_093541_KM122.all.mb58.gz 46.46MB Kongsberg multibeam vendor format
0118_20120813_103546_KM122.all.mb58.gz 46.37MB Kongsberg multibeam vendor format
0119_20120813_113537_KM122.all.mb58.gz 46.64MB Kongsberg multibeam vendor format
0120_20120813_123547_KM122.all.mb58.gz 46.37MB Kongsberg multibeam vendor format
0121_20120813_133535_KM122.all.mb58.gz 46.71MB Kongsberg multibeam vendor format
0122_20120813_143536_KM122.all.mb58.gz 46.80MB Kongsberg multibeam vendor format
0123_20120813_153547_KM122.all.mb58.gz 46.58MB Kongsberg multibeam vendor format
0124_20120813_163544_KM122.all.mb58.gz 46.46MB Kongsberg multibeam vendor format
0125_20120813_173534_KM122.all.mb58.gz 47.62MB Kongsberg multibeam vendor format
0126_20120813_183533_KM122.all.mb58.gz 46.32MB Kongsberg multibeam vendor format
0127_20120813_193538_KM122.all.mb58.gz 46.23MB Kongsberg multibeam vendor format
0128_20120813_203541_KM122.all.mb58.gz 46.25MB Kongsberg multibeam vendor format
0129_20120813_213538_KM122.all.mb58.gz 46.35MB Kongsberg multibeam vendor format
0130_20120813_223548_KM122.all.mb58.gz 46.29MB Kongsberg multibeam vendor format
0131_20120813_233542_KM122.all.mb58.gz 11.97MB Kongsberg multibeam vendor format
0132_20120814_063103_KM122.all.mb58.gz 46.76MB Kongsberg multibeam vendor format
0133_20120814_073110_KM122.all.mb58.gz 49.55MB Kongsberg multibeam vendor format
0134_20120814_083111_KM122.all.mb58.gz 64.19MB Kongsberg multibeam vendor format
0135_20120814_093105_KM122.all.mb58.gz 146.12MB Kongsberg multibeam vendor format
0136_20120814_103104_KM122.all.mb58.gz 60.11MB Kongsberg multibeam vendor format
0137_20120814_112217_KM122.all.mb58.gz 63.90MB Kongsberg multibeam vendor format
0138_20120814_124306_KM122.all.mb58.gz 81.33MB Kongsberg multibeam vendor format
0139_20120814_134308_KM122.all.mb58.gz 107.14MB Kongsberg multibeam vendor format
0140_20120814_144307_KM122.all.mb58.gz 100.25MB Kongsberg multibeam vendor format
0141_20120814_154308_KM122.all.mb58.gz 98.44MB Kongsberg multibeam vendor format
0142_20120814_164307_KM122.all.mb58.gz 91.07MB Kongsberg multibeam vendor format
9999.all.mb58.gz 42.53MB Kongsberg multibeam vendor format

Metadata Files: 1

Files File Size Description
KM1217_Multibeam.xml NGDC created ISO metadata